DW2806 Weather Reports


Display with metric or nautical units.
time (UTC)temp
F
wind
direction
speed
MPH
gust
MPH
rain 1hr
in
rain 24hr
in
rain mn
in
humidity
%
barometer
mb
20260903151557 67 115 0.0 0.0 0.00 0.00 0.00 95 1025.7
20260903150109 67 115 0.0 0.0 0.00 0.00 0.00 95 1025.7
20260903144551 66 115 0.0 0.0 0.00 0.00 0.00 95 1025.7
20260903143049 66 115 0.0 0.0 0.00 0.00 0.00 95 1025.7
20260903141548 65 115 0.0 0.0 0.00 0.00 0.00 95 1025.7
20260903140047 65 115 0.0 0.0 0.00 0.00 0.00 95 1025.7
20260903134553 65 115 0.0 0.0 0.00 0.00 0.00 95 1025.7
20260903133044 64 115 0.0 0.0 0.00 0.00 0.00 95 1025.7
20260903131543 64 115 0.0 0.0 0.00 0.00 0.00 95 1025.7
20260903130042 64 115 0.0 0.0 0.00 0.00 0.00 95 1025.7
20260903124550 64 115 0.0 0.0 0.00 0.00 0.00 95 1025.7
20260903123039 64 115 0.0 0.0 0.00 0.00 0.00 95 1025.7
20260903121538 64 115 0.0 0.0 0.00 0.00 0.00 95 1025.7
20260903120037 64 115 0.0 0.0 0.00 0.00 0.00 95 1025.7
20260903114539 64 115 0.0 0.0 0.00 0.00 0.00 94 1025.7
20260903113035 64 115 0.0 0.0 0.00 0.00 0.00 94 1025.7
20260903111534 64 115 0.0 0.0 0.00 0.00 0.00 94 1025.7
20260903110034 63 115 0.0 0.0 0.00 0.00 0.00 94 1025.7
20260903104533 63 115 0.0 0.0 0.00 0.00 0.00 94 1025.7
20260903103032 63 115 0.0 0.0 0.00 0.00 0.00 94 1025.7
20260903101530 63 115 0.0 0.0 0.00 0.00 0.00 93 1025.7
20260903100034 63 115 0.0 0.0 0.00 0.00 0.00 93 1025.7
20260903094530 63 115 0.0 0.0 0.00 0.00 0.00 93 1025.7
20260903093029 64 114 0.0 1.0 0.00 0.00 0.00 93 1025.7
20260903091528 64 129 0.0 0.0 0.00 0.00 0.00 92 1025.7
20260903090028 65 131 0.0 1.0 0.00 0.00 0.00 92 1025.7
20260903084539 65 98 0.0 0.0 0.00 0.00 0.00 90 1025.7
20260903083027 65 98 0.0 2.0 0.00 0.00 0.00 89 1025.7
20260903081526 65 54 0.0 0.0 0.00 0.00 0.00 89 1025.7
20260903080023 65 341 0.0 0.0 0.00 0.00 0.00 89 1025.7
20260903074521 64 341 0.0 0.0 0.00 0.00 0.00 88 1025.7
20260903073021 64 341 0.0 0.0 0.00 0.00 0.00 88 1025.7
20260903071520 64 341 0.0 0.0 0.00 0.00 0.00 88 1025.7
20260903070019 64 341 0.0 0.0 0.00 0.00 0.00 89 1025.7
20260903064519 64 341 0.0 0.0 0.00 0.00 0.00 89 1025.7
20260903063022 64 341 0.0 0.0 0.00 0.00 0.00 90 1025.7
20260903061528 64 341 0.0 0.0 0.00 0.00 0.00 90 1025.7
20260903060019 64 341 0.0 0.0 0.00 0.00 0.00 92 1025.7
20260903054516 64 341 0.0 0.0 0.00 0.00 0.00 92 1025.7
20260903053027 64 341 0.0 0.0 0.00 0.00 0.00 93 1025.7
20260903051513 64 341 0.0 0.0 0.00 0.00 0.00 93 1025.7
20260903050012 64 341 0.0 0.0 0.00 0.00 0.00 93 1025.7
20260903044513 63 341 0.0 0.0 0.00 0.00 0.00 93 1025.7
20260903043027 64 341 0.0 0.0 0.00 0.00 0.00 93 1025.7
20260903041511 64 341 0.0 0.0 0.00 0.00 0.00 93 1025.7
20260903040010 64 341 0.0 0.0 0.00 0.00 0.00 94 1025.7
20260903034509 63 341 0.0 0.0 0.00 0.00 0.00 94 1025.7
20260903033009 63 341 0.0 0.0 0.00 0.00 0.00 93 1025.7
20260903031508 63 341 0.0 0.0 0.00 0.00 0.00 93 1025.7
20260903030008 63 341 0.0 0.0 0.00 0.00 0.00 93 1025.7
20260903024507 63 341 0.0 0.0 0.00 0.00 0.00 93 1025.7
20260903023010 63 341 0.0 0.0 0.00 0.00 0.00 93 1025.7
20260903021510 63 341 0.0 0.0 0.00 0.00 0.00 93 1025.7
20260903020006 63 341 0.0 0.0 0.00 0.00 0.00 93 1025.7
20260903014505 63 341 0.0 0.0 0.00 0.00 0.00 93 1025.7
20260903013005 63 341 0.0 0.0 0.00 0.00 0.00 93 1025.7
20260903011504 63 341 0.0 0.0 0.00 0.00 0.00 92 1025.7
20260903010006 63 341 0.0 0.0 0.00 0.00 0.00 92 1025.7
20260903004511 64 341 0.0 0.0 0.00 0.00 0.00 92 1025.7
20260903003005 64 341 0.0 0.0 0.00 0.00 0.00 92 1025.7
20260903001506 64 341 0.0 0.0 0.00 0.00 0.00 92 1025.7
20260903000005 64 341 0.0 0.0 0.00 0.00 0.00 91 1025.7
20260902234502 65 341 0.0 0.0 0.00 0.00 0.00 91 1025.7
20260902233001 65 341 0.0 0.0 0.00 0.00 0.00 90 1025.7
20260902231559 66 341 0.0 0.0 0.00 0.00 0.00 90 1025.7
20260902230059 67 341 0.0 0.0 0.00 0.00 0.00 89 1025.7
20260902224602 67 341 0.0 0.0 0.00 0.00 0.00 89 1025.7
20260902223058 67 341 0.0 0.0 0.00 0.00 0.00 90 1025.7
20260902221605 68 341 0.0 0.0 0.00 0.00 0.00 89 1025.7
20260902220101 68 341 0.0 0.0 0.00 0.00 0.00 89 1025.7
20260902214603 68 341 0.0 0.0 0.00 0.00 0.00 89 1025.7
20260902213056 69 341 0.0 0.0 0.00 0.00 0.00 88 1025.7
20260902211610 69 341 0.0 0.0 0.00 0.00 0.00 87 1025.7
20260902210116 69 4 0.0 0.0 0.00 0.00 0.00 87 1025.7
20260902204557 70 4 0.0 1.0 0.00 0.00 0.00 87 1025.7
20260902203054 70 5 0.0 1.0 0.00 0.00 0.00 87 1025.7
20260902201608 70 3 0.0 0.0 0.00 0.00 0.00 86 1025.7
20260902200052 70 3 0.0 6.0 0.00 0.00 0.00 86 1025.7
20260902194552 70 334 0.0 0.0 0.00 0.00 0.00 85 1025.7
20260902193049 70 334 0.0 0.0 0.00 0.00 0.00 86 1025.7
20260902191553 70 331 0.0 0.0 0.00 0.00 0.00 87 1025.7
20260902190046 70 331 0.0 2.0 0.00 0.00 0.00 86 1025.7
20260902184546 69 289 0.0 4.0 0.00 0.00 0.00 87 1025.7
20260902183047 69 327 0.0 4.0 0.00 0.00 0.00 88 1025.7
20260902181549 69 331 0.0 0.0 0.00 0.00 0.00 88 1025.7
20260902180104 69 331 0.0 4.0 0.00 0.00 0.00 88 1025.7
20260902174542 69 330 0.0 3.0 0.00 0.00 0.00 88 1025.7
20260902173041 69 330 0.0 5.0 0.00 0.00 0.00 88 1025.7
20260902171543 69 324 0.0 5.0 0.00 0.00 0.00 88 1025.7
20260902170039 69 324 0.0 5.0 0.00 0.00 0.00 89 1025.7
20260902164538 69 335 0.0 0.0 0.00 0.00 0.00 90 1025.7
20260902163038 69 335 0.0 2.0 0.00 0.00 0.00 89 1025.7
20260902161538 69 338 0.0 0.0 0.00 0.00 0.00 89 1025.7
20260902160040 69 315 0.0 0.0 0.00 0.00 0.00 90 1025.7
20260902154535 69 315 0.0 2.0 0.00 0.00 0.00 88 1025.7
20260902153039 69 315 0.0 0.0 0.00 0.00 0.00 91 1025.7